This demonstration page uses our WeatherBlox Daily Observations layout. Learn more.

Hourly Observations for October 14, 2015

Temp ( °F °C ) Dew Point ( °F °C ) Humidity (%) Winds ( mph kmh ) Pressure ( in mb ) Visibility ( mi km ) Precip ( " mm )
12:15 am 00:15 Clear 48 8.8 36 2.4 64 64 Calm 30.09 1019 10 16.0934 0 0
12:35 am 00:35 Clear 48 9 37 2.7 65 65 Calm 30.09 1019 10 16.0934 0 0
12:55 am 00:55 Clear 47 8.1 37 2.7 69 69 Calm 30.09 1019 10 16.0934 0 0
1:15 am 01:15 Clear 47 8.4 37 2.6 67 67 Calm 30.09 1019 10 16.0934 0 0
1:35 am 01:35 Clear 44 6.7 36 2.2 73 73 N 3 6 30.09 1019 10 16.0934 0 0
1:55 am 01:55 Clear 45 7.3 37 2.5 72 72 Calm 30.09 1019 10 16.0934 0 0
2:15 am 02:15 Clear 44 6.8 37 2.7 75 75 Calm 30.12 1020 10 16.0934 0 0
2:35 am 02:35 Clear 42 5.8 36 2.2 78 78 Calm 30.15 1021 10 16.0934 0 0
2:55 am 02:55 Clear 45 7.4 37 2.5 71 71 N 3 6 30.12 1020 10 16.0934 0 0
3:15 am 03:15 Clear 44 6.5 36 2.4 75 75 Calm 30.12 1020 10 16.0934 0 0
3:35 am 03:35 Clear 44 6.4 36 2.4 76 76 Calm 30.12 1020 10 16.0934 0 0
3:55 am 03:55 Clear 43 6 36 2.4 78 78 Calm 30.15 1021 10 16.0934 0 0
4:15 am 04:15 Clear 42 5.5 36 2.2 80 80 N 3 6 30.15 1021 10 16.0934 0 0
4:35 am 04:35 Clear 42 5.7 36 2.2 78 78 Calm 30.15 1021 10 16.0934 0 0
4:55 am 04:55 Clear 44 6.5 36 2.2 74 74 Calm 30.12 1020 10 16.0934 0 0
5:15 am 05:15 Clear 42 5.6 36 2.1 78 78 N 3 6 30.15 1021 10 16.0934 0 0
5:35 am 05:35 Clear 41 5.2 35 1.9 79 79 Calm 30.15 1021 10 16.0934 0 0
5:55 am 05:55 Clear 41 5 35 1.8 80 80 Calm 30.15 1021 10 16.0934 0 0
6:15 am 06:15 Clear 41 4.9 36 2 82 82 Calm 30.15 1021 10 16.0934 0 0
6:35 am 06:35 Clear 41 4.8 35 1.7 81 81 Calm 30.18 1022 10 16.0934 0 0
6:55 am 06:55 Clear 40 4.4 35 1.5 82 82 Calm 30.18 1022 10 16.0934 0 0
7:15 am 07:15 Clear 40 4.3 36 2 85 85 W 3 6 30.18 1022 10 16.0934 0 0
7:35 am 07:35 Clear 39 4 35 1.6 85 85 Calm 30.18 1022 10 16.0934 0 0
7:55 am 07:55 Sunny 38 3.6 33 0.7 82 82 Calm 30.18 1022 10 16.0934 0 0
8:15 am 08:15 Sunny 38 3.6 35 1.6 87 87 Calm 30.18 1022 10 16.0934 0 0
8:35 am 08:35 Sunny 41 5.1 37 2.6 84 84 Calm 30.18 1022 7 11.26538 0 0
8:55 am 08:55 Sunny 45 7.4 40 4.2 80 80 Calm 30.18 1022 10 16.0934 0 0
9:15 am 09:15 Hazy 49 9.7 41 5 73 73 Calm 30.15 1021 5 8.0467 0 0
9:35 am 09:35 Sunny 54 12.2 38 3.5 56 56 E 3 6 30.12 1020 10 16.0934 0 0
9:55 am 09:55 Sunny 57 13.9 34 1.1 42 42 ESE 6 9 30.09 1019 10 16.0934 0 0
10:15 am 10:15 Sunny 59 15.1 34 1.2 39 39 E 5 7 30.09 1019 10 16.0934 0 0
10:35 am 10:35 Sunny 61 16.2 33 0.5 35 35 ESE 5 7 30.09 1019 10 16.0934 0 0
10:55 am 10:55 Sunny 64 17.5 32 0 31 31 SE 8 13 30.06 1018 10 16.0934 0 0
11:15 am 11:15 Sunny 65 18.5 31 -0.5 28 28 SE 9 15 30.06 1018 10 16.0934 0 0
11:35 am 11:35 Sunny 67 19.2 31 -0.3 27 27 SE 9 15 30.06 1018 10 16.0934 0 0
11:55 am 11:55 Sunny 68 20.1 31 -0.6 25 25 SE 9 15 30.06 1018 10 16.0934 0 0
12:15 pm 12:15 Sunny 69 20.8 31 -0.8 24 24 SE 8 13 30.03 1017 10 16.0934 0 0
12:35 pm 12:35 Sunny 70 21.1 31 -0.8 23 23 S 7 11 30.03 1017 10 16.0934 0 0
12:55 pm 12:55 Sunny 71 21.9 30 -1 22 22 SE 7 11 30.03 1017 10 16.0934 0 0
1:15 pm 13:15 Sunny 72 22.3 30 -1.1 21 21 S 8 13 30.03 1017 10 16.0934 0 0
1:35 pm 13:35 Sunny 72 22.3 30 -1.2 21 21 S 5 7 30.03 1017 10 16.0934 0 0
1:55 pm 13:55 Sunny 73 22.7 30 -1.3 20 20 SSE 7 11 30.03 1017 10 16.0934 0 0
2:15 pm 14:15 Sunny 74 23.1 30 -1.3 20 20 SSE 9 15 30 1016 10 16.0934 0 0
2:35 pm 14:35 Sunny 74 23.1 30 -1.1 20 20 SSW 6 9 30 1016 10 16.0934 0 0
2:55 pm 14:55 Sunny 74 23.5 30 -0.9 20 20 S 10 17 29.97 1015 10 16.0934 0 0
3:15 pm 15:15 Sunny 75 23.8 30 -1 19 19 SSW 9 15 29.94 1014 10 16.0934 0 0
3:35 pm 15:35 Sunny 75 24.1 31 -0.8 19 19 SSW 13 20 29.94 1014 10 16.0934 0 0
3:55 pm 15:55 Sunny 75 24 30 -1.1 19 19 SSW 8 13 29.94 1014 10 16.0934 0 0
4:15 pm 16:15 Sunny 75 24.1 31 -0.5 20 20 SSW 10 17 29.94 1014 10 16.0934 0 0
4:35 pm 16:35 Sunny 75 24 31 -0.6 20 20 S 10 17 29.94 1014 10 16.0934 0 0
4:55 pm 16:55 Sunny 75 23.9 31 -0.6 20 20 S 9 15 29.94 1014 10 16.0934 0 0
5:15 pm 17:15 Sunny 75 23.8 31 -0.6 20 20 S 13 20 29.91 1013 10 16.0934 0 0
5:35 pm 17:35 Sunny 74 23.6 31 -0.6 20 20 SSW 12 19 29.91 1013 10 16.0934 0 0
5:55 pm 17:55 Sunny 74 23.2 30 -0.9 20 20 SSW 10 17 29.94 1014 10 16.0934 0 0
6:15 pm 18:15 Sunny 73 22.6 31 -0.6 21 21 S 9 15 29.94 1014 10 16.0934 0 0
6:35 pm 18:35 Sunny 71 21.5 32 0 24 24 S 6 9 29.94 1014 10 16.0934 0 0
6:55 pm 18:55 Sunny 68 20 32 -0.1 26 26 S 6 9 29.94 1014 10 16.0934 0 0
7:15 pm 19:15 Clear 63 17.2 31 -0.3 31 31 SE 5 7 30 1016 10 16.0934 0 0
7:35 pm 19:35 Clear 60 15.4 32 -0.2 35 35 SE 6 9 30.03 1017 10 16.0934 0 0
7:55 pm 19:55 Clear 55 12.5 32 0.1 43 43 SE 6 9 30.06 1018 7 11.26538 0 0
8:15 pm 20:15 Hazy 55 12.5 33 0.5 44 44 SE 7 11 30.06 1018 5 8.0467 0 0
8:35 pm 20:35 Clear 57 13.7 32 0 39 39 SE 9 15 30.03 1017 7 11.26538 0 0
8:55 pm 20:55 Clear 56 13.1 32 0 41 41 SE 7 11 30.06 1018 7 11.26538 0 0
9:15 pm 21:15 Clear 52 10.9 33 0.5 49 49 SE 3 6 30.06 1018 7 11.26538 0 0
9:35 pm 21:35 Clear 56 13.5 33 0.3 41 41 SE 7 11 30.03 1017 10 16.0934 0 0
9:55 pm 21:55 Clear 54 12 32 0.1 44 44 SSE 5 7 30.06 1018 10 16.0934 0 0
10:15 pm 22:15 Clear 51 10.5 33 0.5 50 50 SE 3 6 30.06 1018 10 16.0934 0 0
10:35 pm 22:35 Clear 49 9.7 33 0.4 53 53 SE 3 6 30.06 1018 10 16.0934 0 0
10:55 pm 22:55 Clear 51 10.6 33 0.6 50 50 Calm 30.06 1018 10 16.0934 0 0
11:15 pm 23:15 Clear 48 8.9 34 1.3 59 59 ENE 5 7 30.12 1020 10 16.0934 0 0
11:35 pm 23:35 Clear 48 8.8 35 1.5 61 61 Calm 30.12 1020 10 16.0934 0 0
11:55 pm 23:55 Clear 49 9.5 34 1.3 57 57 Calm 30.06 1018 10 16.0934 0 0

Powered by AerisWeather